Stations météo

réclame
Mon MeteoGroup
Voorschoten AWS, Pays-Bas (6215): Température de l'air & dewpoint: 12.07.2019 20:00:00 - 18.07.2019 20:00:00 (CEST)Voorschoten AWS, Pays-Bas (6215): Température de l'air 5cm: 12.07.2019 20:00:00 - 18.07.2019 20:00:00 (CEST)Voorschoten AWS, Pays-Bas (6215): Vitesse du vent & gusts: 12.07.2019 20:00:00 - 18.07.2019 20:00:00 (CEST)Voorschoten AWS, Pays-Bas (6215): Direction du vent: 12.07.2019 20:00:00 - 18.07.2019 20:00:00 (CEST)Voorschoten AWS, Pays-Bas (6215): reduced air pressure: 12.07.2019 20:00:00 - 18.07.2019 20:00:00 (CEST)Voorschoten AWS, Pays-Bas (6215): visibility: 12.07.2019 20:00:00 - 18.07.2019 20:00:00 (CEST)Voorschoten AWS, Pays-Bas (6215): Quantités de précipitations: 12.07.2019 20:00:00 - 18.07.2019 20:00:00 (CEST)
Date & Time tt [°C] td [°C] tt 5cm [°C] ff [km/h] ff [knt] fx [km/h] fx [knt] dd ppp [hPa] vv [km] rr [mm]
18.07.2019 20:00:00 18,0 17,1 17,8 19 10 - - SW 1010,4 14 -
18.07.2019 19:00:00 18,7 17,1 18,7 18 10 29 16 SSW 1010,5 14 0,0
18.07.2019 18:00:00 18,6 16,3 18,3 14 8 25 14 WSW 1010,7 19 0,1
18.07.2019 17:00:00 19,6 16,3 19,6 14 8 25 14 W 1010,6 21 0,0
18.07.2019 16:00:00 20,1 14,6 20,6 14 8 40 21 WSW 1010,9 30 0,0
18.07.2019 15:00:00 20,6 16,2 21,7 18 10 32 18 WSW 1010,7 22 0,0
18.07.2019 14:00:00 20,6 14,2 21,4 18 10 32 18 SW 1010,6 22 0,0
18.07.2019 13:00:00 20,2 15,9 21,6 14 8 29 16 WSW 1010,8 17 0,0
18.07.2019 12:00:00 19,5 16,0 20,5 22 12 32 18 W 1010,5 17 0,0
18.07.2019 11:00:00 21,0 15,1 22,3 14 8 22 12 SW 1010,3 23 0,0
18.07.2019 10:00:00 20,4 15,8 21,7 14 8 22 12 SW 1010,2 22 0,0
18.07.2019 09:00:00 19,5 15,4 20,0 14 8 22 12 SW 1010,4 24 0,0
18.07.2019 08:00:00 18,3 15,6 17,8 7 4 11 6 SSW 1010,2 11 0,0
18.07.2019 07:00:00 17,8 14,5 16,8 7 4 14 8 S 1010,3 14 0,0
18.07.2019 06:00:00 17,3 14,3 16,1 11 6 14 8 SSE 1010,5 15 0,0
18.07.2019 05:00:00 16,9 14,3 15,9 11 6 14 8 SE 1010,6 14 0,0
18.07.2019 04:00:00 16,8 14,4 15,7 7 4 11 6 SE 1010,9 14 0,0
18.07.2019 03:00:00 16,6 14,7 15,0 7 4 11 6 SE 1011,5 15 0,0
18.07.2019 02:00:00 16,9 14,8 15,0 7 4 14 8 ESE 1012,0 16 0,0
18.07.2019 01:00:00 15,7 15,5 14,7 4 2 7 4 S 1012,3 12 0,0
18.07.2019 00:00:00 15,9 15,8 13,7 0 0 4 2 N 1012,6 8 0,0
17.07.2019 23:00:00 16,5 16,5 14,1 0 0 4 2 N 1012,9 10 0,0
17.07.2019 22:00:00 17,2 16,4 15,5 4 2 4 2 NNW 1013,2 12 0,0
17.07.2019 21:00:00 18,1 16,0 17,7 4 2 11 6 NW 1013,3 22 0,0
17.07.2019 20:00:00 19,8 14,9 20,1 7 4 11 6 NW 1013,5 28 0,0
17.07.2019 19:00:00 21,5 14,7 22,6 7 4 14 8 NW 1013,6 33 0,0
17.07.2019 18:00:00 21,0 14,8 22,5 11 6 18 10 NW 1014,1 28 0,0
17.07.2019 17:00:00 21,8 15,3 23,6 11 6 22 12 NNW 1014,5 28 0,0
17.07.2019 16:00:00 22,5 14,0 24,9 11 6 18 10 NNW 1014,9 25 0,0
17.07.2019 15:00:00 22,6 15,3 24,6 14 8 22 12 NW 1015,1 25 0,0
17.07.2019 14:00:00 23,3 14,9 24,3 4 2 7 4 ESE 1015,4 24 0,0
17.07.2019 13:00:00 22,1 14,6 - 4 2 18 10 NW 1015,9 29 0,0
17.07.2019 12:00:00 20,9 14,7 23,5 7 4 14 8 ESE 1016,0 23 0,0
17.07.2019 11:00:00 19,8 14,5 22,2 7 4 14 8 ESE 1016,2 27 0,0
17.07.2019 10:00:00 18,0 14,1 20,2 4 2 11 6 E 1016,5 14 0,0
17.07.2019 09:00:00 16,1 13,7 17,6 7 4 11 6 SE 1016,7 12 0,0
17.07.2019 08:00:00 14,1 13,7 14,6 4 2 7 4 ESE 1016,5 8 0,0
17.07.2019 07:00:00 10,7 10,7 9,1 0 0 4 2 N 1016,6 0,9 0,0
17.07.2019 06:00:00 9,1 9,0 7,5 4 2 4 2 NNW 1016,8 0,1 0,0
17.07.2019 05:00:00 9,1 9,1 6,4 0 0 4 2 N 1016,9 0,1 0,0
17.07.2019 04:00:00 9,7 9,7 6,8 4 2 4 2 NNW 1017,1 0,1 0,0
17.07.2019 03:00:00 10,2 10,2 7,0 0 0 4 2 N 1017,3 0,1 0,0
17.07.2019 02:00:00 10,2 10,2 7,4 4 2 4 2 NNW 1017,8 0,2 0,0
17.07.2019 01:00:00 11,0 10,9 7,6 0 0 4 2 N 1017,7 0,1 0,0
17.07.2019 00:00:00 11,6 11,6 7,8 0 0 4 2 N 1018,0 0,2 0,0
16.07.2019 23:00:00 12,8 12,8 9,2 4 2 7 4 NW 1018,2 5 0,0
16.07.2019 22:00:00 14,0 12,7 12,8 7 4 11 6 NW 1018,0 16 0,0
16.07.2019 21:00:00 16,6 13,7 16,5 7 4 14 8 NNW 1018,0 26 0,0
16.07.2019 20:00:00 17,8 13,3 18,6 7 4 18 10 NNW 1018,0 30 0,0
16.07.2019 19:00:00 18,5 12,9 20,1 11 6 18 10 NNW 1018,0 23 0,0
16.07.2019 18:00:00 18,6 13,4 21,0 11 6 22 12 WNW 1018,3 32 0,0
16.07.2019 17:00:00 18,8 12,7 21,6 7 4 22 12 NNW 1018,7 38 0,0
16.07.2019 16:00:00 18,0 13,3 21,0 11 6 25 14 WNW 1019,0 32 0,0
16.07.2019 15:00:00 17,9 12,8 20,8 11 6 22 12 WNW 1019,1 26 0,0
16.07.2019 14:00:00 17,6 12,1 20,2 11 6 22 12 NW 1019,4 30 0,0
16.07.2019 13:00:00 16,4 11,8 18,0 11 6 18 10 W 1019,6 45 0,0
16.07.2019 12:00:00 16,1 11,8 17,4 7 4 14 8 W 1019,7 40 0,0
16.07.2019 11:00:00 16,0 11,5 - 11 6 14 8 WSW 1019,8 29 0,0
16.07.2019 10:00:00 15,4 11,1 16,1 7 4 14 8 W 1019,8 40 0,0
16.07.2019 09:00:00 15,2 11,3 15,6 11 6 18 10 W 1019,9 37 0,0
16.07.2019 08:00:00 14,9 11,2 14,9 7 4 11 6 W 1019,6 35 0,0
16.07.2019 07:00:00 14,3 11,0 14,0 7 4 11 6 NW 1019,6 47 0,0
16.07.2019 06:00:00 14,2 11,3 13,8 7 4 14 8 W 1019,5 43 0,0
16.07.2019 05:00:00 14,6 10,8 14,1 11 6 18 10 WNW 1019,6 49 0,0
16.07.2019 04:00:00 14,4 11,6 13,9 7 4 11 6 WNW 1019,8 45 0,0
16.07.2019 03:00:00 14,3 11,5 13,7 7 4 14 8 W 1020,1 33 0,0
16.07.2019 02:00:00 14,5 11,7 14,0 7 4 18 10 NW 1020,4 46 0,0
16.07.2019 01:00:00 14,3 12,5 13,8 7 4 11 6 WNW 1020,5 41 0,0
16.07.2019 00:00:00 13,9 13,4 13,7 4 2 7 4 W 1020,6 27 0,0
15.07.2019 23:00:00 13,8 13,0 13,7 7 4 14 8 W 1020,7 10 0,0
15.07.2019 22:00:00 14,1 12,8 13,9 11 6 22 12 NW 1020,9 30 0,0
15.07.2019 21:00:00 15,4 12,3 15,3 11 6 22 12 NNW 1020,5 49 0,0
15.07.2019 20:00:00 15,2 12,4 15,2 14 8 25 14 N 1020,7 45 0,0
15.07.2019 19:00:00 15,5 12,6 16,3 11 6 25 14 NW 1020,8 32 0,0
15.07.2019 18:00:00 15,8 13,1 17,1 22 12 29 16 NW 1021,1 36 0,0
15.07.2019 17:00:00 16,1 12,9 16,3 14 8 29 16 NW 1021,2 33 0,0
15.07.2019 16:00:00 16,0 12,8 17,0 18 10 29 16 NNW 1021,4 42 0,0
15.07.2019 15:00:00 15,7 12,4 16,6 18 10 29 16 NW 1021,3 33 0,0
15.07.2019 14:00:00 16,0 12,4 16,7 14 8 29 16 NNW 1021,3 29 0,0
15.07.2019 13:00:00 15,8 12,3 16,9 22 12 32 18 NNW 1021,3 30 0,0
15.07.2019 12:00:00 15,2 12,3 15,8 18 10 25 14 NW 1021,3 21 0,0
15.07.2019 11:00:00 15,7 10,0 16,3 14 8 25 14 NNW 1021,2 39 0,0
15.07.2019 10:00:00 15,1 11,1 15,2 11 6 18 10 N 1021,2 39 0,0
15.07.2019 09:00:00 14,5 11,7 14,3 11 6 18 10 NNW 1021,0 34 0,0
15.07.2019 08:00:00 14,1 11,4 13,9 7 4 11 6 N 1020,8 34 0,0
15.07.2019 07:00:00 13,5 12,1 13,3 4 2 11 6 NE 1020,8 13 0,0
15.07.2019 06:00:00 13,3 11,9 13,0 4 2 7 4 NNE 1020,8 10 0,0
15.07.2019 05:00:00 13,0 12,2 12,9 4 2 22 12 N 1020,6 11 0,0
15.07.2019 04:00:00 13,6 11,6 13,5 11 6 18 10 N 1020,8 9 0,0
15.07.2019 03:00:00 14,2 11,1 13,9 11 6 22 12 NNE 1021,2 22 0,0
15.07.2019 02:00:00 14,2 11,1 14,0 7 4 18 10 NNE 1021,4 23 0,0
15.07.2019 01:00:00 14,4 11,8 14,2 11 6 18 10 N 1021,4 37 0,0
15.07.2019 00:00:00 14,7 11,7 14,3 11 6 22 12 N 1021,4 32 0,0
14.07.2019 23:00:00 14,8 11,3 14,7 14 8 22 12 N 1021,5 39 0,0
14.07.2019 22:00:00 14,9 11,3 14,8 18 10 25 14 N 1021,6 35 0,0
14.07.2019 21:00:00 14,8 11,4 14,8 18 10 29 16 NNW 1021,6 29 0,0
14.07.2019 20:00:00 15,5 11,6 15,4 18 10 29 16 N 1021,4 31 0,0
14.07.2019 19:00:00 15,8 12,1 16,0 22 12 36 19 NNW 1021,5 35 0,0
14.07.2019 18:00:00 17,1 12,5 17,6 22 12 36 19 N 1021,3 34 0,0
14.07.2019 17:00:00 17,1 12,5 17,9 25 14 36 19 NNW 1021,5 34 0,0
14.07.2019 16:00:00 18,4 13,7 20,4 22 12 36 19 N 1021,3 33 0,0
14.07.2019 15:00:00 17,4 12,6 18,2 22 12 36 19 NNW 1021,4 40 0,0
14.07.2019 14:00:00 17,9 13,4 18,6 25 14 32 18 NNW 1021,4 30 0,0
14.07.2019 13:00:00 16,5 12,3 16,8 22 12 36 19 NNW 1021,5 32 0,0
14.07.2019 12:00:00 17,0 12,7 17,4 22 12 40 21 N 1021,5 44 0,0
14.07.2019 11:00:00 16,5 12,9 17,1 18 10 32 18 NNW 1021,2 34 0,0
14.07.2019 10:00:00 15,5 13,1 15,6 22 12 32 18 N 1021,2 42 0,0
14.07.2019 09:00:00 14,4 13,6 14,4 14 8 25 14 NNE 1021,0 17 0,1
14.07.2019 08:00:00 13,7 13,2 13,7 22 12 36 19 N 1020,9 6 0,3
14.07.2019 07:00:00 13,9 13,4 13,7 14 8 29 16 N 1020,7 19 0,6
14.07.2019 06:00:00 13,9 12,9 13,8 18 10 29 16 NNE 1020,8 7 0,1
14.07.2019 05:00:00 14,3 12,9 14,1 14 8 29 16 N 1020,6 18 0,0
14.07.2019 04:00:00 15,2 12,2 14,9 14 8 25 14 N 1020,8 40 0,0
14.07.2019 03:00:00 15,1 11,2 14,9 14 8 25 14 N 1021,0 37 0,0
14.07.2019 02:00:00 15,0 11,4 14,8 14 8 25 14 N 1021,1 33 0,0
14.07.2019 01:00:00 15,3 12,1 15,1 18 10 25 14 N 1021,2 38 0,0
14.07.2019 00:00:00 15,5 11,8 15,2 14 8 29 16 N 1021,3 33 0,0
13.07.2019 23:00:00 15,1 11,5 14,9 18 10 29 16 NNW 1021,4 32 0,0
13.07.2019 22:00:00 15,3 11,2 15,0 18 10 36 19 NNW 1021,3 31 0,0
13.07.2019 21:00:00 15,5 13,5 15,3 18 10 32 18 NNW 1020,8 28 0,0
13.07.2019 20:00:00 15,2 14,4 15,6 22 12 32 18 NNW 1020,7 6 0,0
13.07.2019 19:00:00 16,6 12,8 17,0 18 10 29 16 NNW 1020,4 42 0,0
13.07.2019 18:00:00 17,2 13,5 17,7 22 12 40 21 N 1020,4 34 0,0
13.07.2019 17:00:00 17,0 13,8 17,4 29 16 40 21 NNW 1020,4 31 0,0
13.07.2019 16:00:00 18,0 14,1 19,2 25 14 36 19 NNW 1020,0 33 0,0
13.07.2019 15:00:00 19,2 15,9 20,4 22 12 36 19 N 1019,8 36 0,0
13.07.2019 14:00:00 18,6 16,3 19,5 22 12 36 19 NNW 1019,6 36 0,0
13.07.2019 13:00:00 18,1 16,3 19,2 18 10 29 16 NNW 1019,3 25 0,0
13.07.2019 12:00:00 17,3 16,3 18,3 22 12 36 19 WNW 1019,2 9 0,0
13.07.2019 11:00:00 17,2 15,5 18,3 25 14 32 18 NW 1018,9 39 0,0
13.07.2019 10:00:00 17,1 15,8 17,4 18 10 25 14 NNW 1018,8 29 0,5
13.07.2019 09:00:00 16,5 15,3 16,6 7 4 18 10 NE 1018,3 19 0,0
13.07.2019 08:00:00 16,2 15,2 16,2 14 8 29 16 N 1017,6 26 0,1
13.07.2019 07:00:00 16,5 15,5 16,3 14 8 22 12 NW 1017,1 18 0,0
13.07.2019 06:00:00 16,1 15,1 16,0 14 8 25 14 NW 1016,9 7 0,0
13.07.2019 05:00:00 16,1 15,0 16,0 11 6 18 10 NW 1016,4 17 0,0
13.07.2019 04:00:00 16,1 14,8 15,9 7 4 22 12 NW 1016,3 16 0,0
13.07.2019 03:00:00 16,0 14,4 15,8 14 8 22 12 NW 1016,3 19 0,0
13.07.2019 02:00:00 15,9 14,6 15,8 11 6 25 14 NW 1016,2 17 0,0
13.07.2019 01:00:00 15,8 14,4 15,7 18 10 25 14 NW 1016,3 15 0,0
13.07.2019 00:00:00 16,0 14,6 15,8 14 8 25 14 NW 1016,0 15 0,0
12.07.2019 23:00:00 16,2 14,7 16,1 18 10 25 14 NW 1015,5 17 0,0
12.07.2019 22:00:00 16,3 14,4 16,2 14 8 29 16 NW 1015,1 21 0,0
12.07.2019 21:00:00 16,5 14,4 16,4 18 10 29 16 NW 1014,5 21 0,0
12.07.2019 20:00:00 16,8 14,5 17,1 22 12 32 18 NW 1014,0 26 0,0

tt = Température de l'air
td = dewpoint
tt 5cm = Température de l'air 5cm
ff = Vitesse du vent
fx = gusts
dd = Direction du vent
ppp = reduced air pressure
vv = visibility
rr = Quantités de précipitations

stations d'obs. à proximité